Location: Keppel Henge
(44.7900°N, 80.9447°W)
Time: 00:52:37
(UTC-04:00)

ISS - Pass Details

Date: 10 October 2017
Orbit: 401 x 408 km, 51.6° (Epoch: 21 October)

Event Time Altitude Azimuth Distance (km) Brightness Sun altitude
Rises 19:40:33 0° 300° (WNW) 2,326 1.2 -10.2°
Reaches altitude 10° 19:42:43 10° 309° (NW) 1,466 -0.2 -10.6°
Maximum altitude 19:45:50 38° 20° (NNE) 632 -3.0 -11.2°
Enters shadow 19:47:48 19° 80° (E) 1,049 -2.4 -11.5°
